www.pogodaiklimat.ru

Погода и климат >> Архив погоды >> Китай >> Тайвань >> Ланьюй


ПОГОДА в Ланьюе

  • Прогноз погоды в Ланьюе
  • Монитор погоды в Ланьюе

АРХИВ ПОГОДЫ в Ланьюе

Время (UTC), дата Ветер
(напр.,м/с)
 
Видим.   Явления Облачность Т
(С)
Тd
(С)
f
(%)
Тe
(С)
Тes
(С)
Комфортность P
(гПа)
Po
(гПа)
Тmin
(С)
Tmax
(С)
R
(мм)
R24
(мм)
S
(см)
09 17.04 СВ 7 10 км слаб. дождь 10/10 300 м
[Frnb]
+21.6 +21.6 100 +28 +28 очень
душно
1011.8 974.4 5
12 17.04 СВ 6 10 км слаб. дождь 10/10 300 м
[Frnb]
+20.9 +20.9 100 +26 +26 душно 1013.7 976.1 8
18 17.04 СВ 8 н/о н/о +21.7 +20.4 92 +27 +27 душно 1012.3 974.9
21 17.04 СВ 8 15 км 10/10 300 м
[Sc]
+22.0 +21.2 95 +28 +28 душно 1012.2 974.8
00 18.04 СВ 5 20 км 6/6 600 м
[Sc diur, vesp]
+22.7 +21.0 90 +30 +31 очень
душно
1014.2 976.8 0.5
03 18.04 В 6 20 км 6/6 600 м
[Cu hum]
+23.7 +21.8 89 +30 +34 очень
душно
1014.2 976.9
06 18.04 В 5 15 км 9/9 300 м
[Sc diur, vesp]
+23.6 +22.6 94 +31 +32 очень
душно
1012.6 975.4
09 18.04 ЮВ 6 15 км 9/9 300 м
[Sc diur, vesp]
+23.4 +22.7 96 +33 +33 очень
душно
1011.8 974.6
12 18.04 В 4 15 км 9/9 300 м
[Sc diur, vesp]
+23.3 +23.3 100 +33 +33 очень
душно
1012.9 975.6
18 18.04 ЮВ 4 н/о н/о +23.5 +23.5 100 +32 +32 очень
душно
1011.5 974.3
21 18.04 Ю 4 15 км 9/9 300 м
[Sc diur, vesp]
+23.6 +23.6 100 +32 +32 очень
душно
1011.2 974.0
00 19.04 Ю 5 15 км 10/10 300 м
[Sc]
+24.3 +24.3 100 +34 +34 очень
душно
1012.2 975.1
03 19.04 Ю 7 10 км 10/10 300 м
[St]
+25.3 +24.5 95 +35 +35 очень
душно
1011.3 974.3
06 19.04 ЮЗ 5 10 км 10/10 300 м
[St]
+25.8 +25.2 96 +37 +37 очень
душно
1010.2 973.3
09 19.04 2000 м сильн. гроза, ливневой дождь н/о +22.0 +22.0 100 +29 +29 очень
душно
1009.3 972.0 43
12 19.04 З 6 15 км {гроза, ливн. осадки} 9/9 600 м
[Sc diur, vesp]
+22.0 +22.0 100 +29 +29 очень
душно
1010.6 973.3 49
18 19.04 З 9 н/о н/о +21.6 +21.6 100 +28 +28 очень
душно
1009.6 972.2
21 19.04 З 10 20 км {дождь} 4/3 600 м
[Sc diur, vesp Ac lent]
+23.0 +21.9 94 +31 +31 очень
душно
1008.7 971.6 1
00 20.04 ЮЗ 8 30 км {дождь} 4/1 600 м
[Cu hum Ac trans]
+25.1 +21.1 78 +32 +32 очень
душно
1010.1 973.2 1
03 20.04 З 8 30 км 3/3 600 м
[Cu hum]
+26.8 +21.1 71 +34 +36 очень
душно
1009.9 973.2
06 20.04 З 5 30 км 3/3 600 м
[Cu hum]
+27.5 +22.7 75 +36 +42 очень
душно
1008.4 971.8
09 20.04 В 1 30 км 4/4 600 м
[Cu hum]
+25.7 +22.8 84 +34 +35 очень
душно
1008.6 971.8
12 20.04 СВ 5 20 км 6/6 300 м
[Sc diur, vesp]
+24.2 +24.2 100 +33 +33 очень
душно
1009.9 972.9
18 20.04 З 5 н/о н/о +23.6 +23.6 100 +32 +32 очень
душно
1009.2 972.1
21 20.04 ЮЗ 6 20 км 8/8 300 м
[Sc diur, vesp]
+23.7 +23.7 100 +32 +32 очень
душно
1009.2 972.1
00 21.04 ЮЗ 9 10 км 10/10 300 м
[St]
+24.8 +24.8 100 +35 +35 очень
душно
1010.8 973.8
03 21.04 ЮЗ 8 12 км 10/10 300 м
[Sc]
+25.4 +25.2 99 +37 +37 очень
душно
1010.6 973.7
06 21.04 З 11 15 км 9/9 300 м
[Sc diur, vesp]
+26.6 +24.4 88 +37 +37 очень
душно
1008.2 971.5
09 21.04 З 14 20 км 3/1 600 м
[Cu hum Ac trans]
+25.3 +24.6 96 +36 +36 очень
душно
1007.4 970.6
12 21.04 З 11 20 км 5/5 600 м
[Sc diur, vesp]
+24.8 +24.5 98 +35 +35 очень
душно
1009.2 972.3
18 21.04 З 3 н/о н/о +24.4 +24.4 100 +34 +34 очень
душно
1010.0 973.0
21 21.04 С 2 15 км 3/0
[Ac lent]
+25.0 +24.1 95 +34 +34 очень
душно
1009.4 972.5
00 22.04 ЮЗ 1 15 км 4/1 600 м
[Cu hum Ac trans]
+26.0 +23.0 84 +35 +41 очень
душно
1010.9 974.0
03 22.04 З 6 15 км 8/4 600 м
[Cu hum Ac trans]
+26.9 +23.0 79 +36 +39 очень
душно
1011.4 974.6
06 22.04 З 7 15 км 8/8 600 м
[Sc diur, vesp]
+26.5 +23.1 82 +36 +36 очень
душно
1009.8 973.0
09 22.04 З 7 15 км 8/8 600 м
[Sc diur, vesp]
+25.0 +24.2 95 +34 +35 очень
душно
1009.0 972.1
12 22.04 З 7 15 км 8/8 300 м
[Sc diur, vesp]
+24.8 +24.8 100 +35 +35 очень
душно
1011.5 974.5
18 22.04 З 5 н/о н/о +24.5 +24.5 100 +34 +34 очень
душно
1010.5 973.5
21 22.04 ЮЗ 10 15 км 4/4 300 м
[Sc diur, vesp]
+24.5 +24.5 100 +34 +34 очень
душно
1009.7 972.7
00 23.04 ЮЗ 9 15 км 8/8 300 м
[Sc diur, vesp]
+25.1 +23.9 93 +34 +34 очень
душно
1012.3 975.3
03 23.04 ЮЗ 9 20 км 8/8 600 м
[Sc diur, vesp]
+26.0 +23.1 84 +35 +35 очень
душно
1012.1 975.2
06 23.04 З 9 20 км 3/3 600 м
[Sc diur, vesp]
+27.0 +22.6 77 +36 +37 очень
душно
1010.1 973.4
09 23.04 З 9 20 км 3/3 600 м
[Sc diur, vesp]
+25.7 +23.9 90 +35 +35 очень
душно
1009.4 972.6
12 23.04 З 7 20 км 3/3 600 м
[Cu hum]
+24.7 +24.7 100 +35 +35 очень
душно
1010.6 973.6
18 23.04 ЮЗ 9 н/о н/о +24.3 +24.3 100 +34 +34 очень
душно
1009.8 972.8
21 23.04 ЮЗ 10 20 км 10/10 300 м
[Sc]
+24.3 +24.3 100 +34 +34 очень
душно
1010.1 973.1
00 24.04 ЮЗ 9 30 км 3/3 600 м
[Cu hum]
+25.1 +23.4 90 +34 +34 очень
душно
1011.9 974.9
03 24.04 ЮЗ 10 30 км 3/3 600 м
[Cu hum]
+27.1 +23.6 81 +37 +38 очень
душно
1011.6 974.8

 

Местоположение метеостанции Ланьюй (Тайвань, Китай): широта 22.03 долгота 121.55 высота над уровнем моря 325 м.

В архиве по умолчанию представлена погода в Ланьюе за последнюю неделю. Архивные данные за месяц целиком и за предыдущие месяцы, начиная с января 2011 года, Вы можете получить, выбрав интересующий диапазон дат из раскрывающегося списка и нажав кнопку "Ввод!".


*Определитесь, кто Вы:
робот инопланетянин человек

Внимание! Время в таблицах - всемирное. Для получения местного времени необходимо прибавить поправку, которая равна 8 ч.

Смотрите также архив погоды в соседних городах и на ближайших метеорологических станциях:

Погода в Хенгчуне (Тайвань, Китай) (83 км)
Погода в Тайдонге (Тайвань, Китай) (90 км)
Погода в Итбаяте (Филиппины) (140 км)
Погода в Тайнане (Тайвань, Китай) (175 км)
Погода на Баско Радар (Филиппины) (183 км)
Погода в Тайчжуне (Тайвань, Китай) (252 км)
Погода в Калаяне (Филиппины) (307 км)
Погода на Йонагуни (Япония) (310 км)
Погода в Тайбэе (Тайвань, Китай) (334 км)
Погода на Ириомоте (Япония) (350 км)

Пояснения к столбцам:

Ветер - указаны скорость ветра в м/с - средняя за 10 мин, порывы в срок и между сроками (в фигурных скобках) и направление, откуда дует ветер: С - северный, СВ - северо-восточный, В - восточный, ЮВ - юго-восточный, Ю - южный, ЮЗ - юго-западный, З - западный, СЗ - северо-западный.
Видимость - горизонтальная дальность видимости в метрах или километрах. При видимости от 1 до 10 км при отсутствии осадков обычно наблюдается дымка, при ухудшении видимости до 1 км и менее - туман. В сухую погоду видимость может ухудшаться дымом, пылью или мглою.
Явления - указаны атмосферные явления, наблюдавшиеся в срок или в последний час перед сроком; фигурными скобками обозначены явления, наблюдавшиеся между сроками (за 1-3 часа до срока); квадратными скобками обозначены град или гололедные отложения с указанием их диаметра в мм.
Облачность - указаны через наклонную черту общая и нижняя облачность в баллах и высота нижней границы облаков в метрах; квадратными скобками обозначены формы облаков: Ci - перистые, Cs - перисто-слоистые, Cc - перисто-кучевые, Ac - высококучевые, As - высокослоистые, Sc - слоисто-кучевые, Ns - слоисто-дождевые, Cu - кучевые, Cb - кучево-дождевые. Подробнее классификацию облаков см. в Атласе облаков (PDF).
T - Температура воздуха - температура, измеренная на высоте 2 м над землей.
Td - Температура точки росы - температура, при понижении до которой содержащийся в воздухе водяной пар достигнет насыщения.
f - Относительная влажность воздуха - влажноcть воздуха, измеренная на высоте 2 м над землей.
Te - Эффективная температура - температура, которую ощущает одетый по сезону человек в тени. Характеристика душности погоды. При расчете учитывается влияние влажности воздуха и скорости ветра на теплоощущения человека.
Tes - Эффективная температура на солнце - температура, которую ощущает человек, с поправкой на солнечный нагрев. Характеристика знойности погоды. Зависит от высоты солнца над горизонтом, облачности и скорости ветра. Ночью, в пасмурную погоду, а также при ветре 12 м/с и более поправка равна нулю.
P - Атмосферное давление - приведенное к уровню моря атмосферное давление.
Po - Атмосферное давление - измеренное на уровне метеостанции атмосферное давление.
Tmin - Минимальная температура - минимум температуры воздуха на высоте 2 м над землей.
Tmax - Максимальная температура - максимум температуры воздуха на высоте 2 м над землей.
R - Количество осадков - Количество выпавших осадков за период времени, мм. При наведении курсора мыши на число - период времени, за который выпало указанное количество осадков.
R24 - Количество осадков - Количество выпавших осадков за 24 часа, мм.
S - Снежный покров - Высота снежного покрова, см. При наведении курсора мыши на число - состояние снежного покрова и степень покрытия местности в баллах.